Home   Weather   Germantown   Past weeks
Flag for USA

Past Weather in Germantown, Maryland, USA — Yesterday and Last 2 Weeks

Now
93 °F

Scattered clouds.


Feels Like: 103 °F
Forecast: 96 / 72 °F
Wind: 12 mph from West

Location: Frederick Municipal Airport

Current Time: Jul 19, 2019 at 3:11:31 pm

Latest Report: Jul 19, 2019 at 1:47 pm


Visibility: 10 mi

Pressure: 29.97 "Hg

Humidity: 53%

Dew Point: 73 °F

Location of GermantownLocation

Past Weather in Germantown — Graph

°F

Germantown Temperature Yesterday

Maximum temperature yesterday: 91 °F (at 4:50 pm)
Minimum temperature yesterday: 75 °F (at 12:05 am)
Average temperature yesterday: 80 °F

High & Low Weather Summary for the Past Weeks

 TemperatureHumidityPressure
High97 °F (Jul 17, 2:47 pm)100% (Jul 5, 1:45 am)30.16 "Hg (Jul 5, 1:45 am)
Low63 °F (Jul 15, 5:25 am)35% (Jul 15, 1:47 pm)29.81 "Hg (Jul 12, 3:25 am)
Average76 °F82%30.00 "Hg
* Reported Jul 4 1:47 pm — Jul 19 1:47 pm, Germantown. Weather by CustomWeather, © 2019

Note: Actual official high and low records may vary slightly from our data, if they occured in-between our weather recording intervals... More about our weather records

Advertising

Germantown Weather History for the Previous 24 Hours

Scroll right to see more
 ConditionsComfort  
Time TempWeatherWind HumidityBarometerVisibility
1:47 pm
Fri, Jul 19
93 °FScattered clouds.12 mph53%29.97 "Hg10 mi
12:47 pm93 °FSunny.12 mph53%29.99 "Hg10 mi
11:47 am91 °FSunny.9 mph56%29.99 "Hg10 mi
10:47 am90 °FSunny.9 mph59%29.99 "Hg10 mi
9:47 am88 °FSunny.9 mph62%29.99 "Hg10 mi
8:47 am84 °FSunny.5 mph70%29.98 "Hg10 mi
7:47 am79 °FSunny.3 mph84%29.97 "Hg10 mi
7:05 am75 °FSunny.5 mph89%29.97 "Hg10 mi
6:45 am73 °FSunny.5 mph94%29.97 "Hg10 mi
6:25 am73 °FSunny.No wind94%29.96 "Hg7 mi
6:05 am73 °FSunny.5 mph94%29.96 "Hg10 mi
5:45 am73 °FClear.5 mph94%29.96 "Hg10 mi
5:25 am73 °FClear.3 mph94%29.96 "Hg10 mi
5:05 am73 °FClear.No wind94%29.95 "Hg7 mi
4:45 am73 °FClear.3 mph94%29.94 "Hg7 mi
4:25 am73 °FClear.No wind94%29.95 "Hg7 mi
4:05 am73 °FClear.No wind94%29.95 "Hg7 mi
3:25 am73 °FClear.No wind100%29.95 "Hg7 mi
3:05 am73 °FClear.No wind94%29.95 "Hg7 mi
2:45 am73 °FClear.No wind100%29.95 "Hg7 mi
2:25 am73 °FClear.No wind94%29.95 "Hg7 mi
2:05 am75 °FClear.3 mph94%29.95 "Hg7 mi
1:45 am73 °FClear.No wind100%29.94 "Hg7 mi
1:25 am73 °FFog.No wind100%29.95 "Hg5 mi
1:05 am73 °FClear.No wind94%29.95 "Hg10 mi
12:45 am77 °FClear.No wind89%29.94 "Hg10 mi
12:25 am77 °FClear.No wind89%29.94 "Hg10 mi
12:05 am77 °FThundershowers. Clear.5 mph89%29.93 "Hg7 mi
11:45 pm
Thu, Jul 18
77 °FClear.No wind89%29.94 "Hg10 mi
11:25 pm77 °FClear.No wind89%29.94 "Hg10 mi
11:05 pm77 °FClear.No wind89%29.92 "Hg10 mi
10:45 pm77 °FClear.No wind89%29.92 "Hg7 mi
10:25 pm79 °FClear.No wind84%29.92 "Hg10 mi
10:05 pm79 °FClear.No wind84%29.91 "Hg10 mi
9:45 pm79 °FClear.3 mph84%29.90 "Hg10 mi
9:25 pm81 °FClear.No wind79%29.90 "Hg10 mi
8:47 pm84 °FClear.No wind74%29.91 "Hg10 mi
7:47 pm91 °FSunny.3 mph52%29.90 "Hg10 mi
6:50 pm91 °FScattered clouds.8 mph52%29.89 "Hg10 mi
5:50 pm91 °FScattered clouds.8 mph52%29.89 "Hg10 mi
4:50 pm91 °FScattered clouds.6 mph52%29.89 "Hg10 mi
3:50 pm90 °FScattered clouds.10 mph55%29.90 "Hg10 mi
Weather by CustomWeather, © 2019

See weather overview